Tracking 18844 objects as of 21-Nov-2017
HD Live streaming from Space Station
objects crossing your sky now

COSMOS 1290

Track COSMOS 1290 now!
10-day predictions
COSMOS 1290 is classified as:


NORAD ID: 12639
Int'l Code: 1981-074D
Perigee: 1,448.0 km
Apogee: 1,472.1 km
Inclination: 74.0 °
Period: 114.9 minutes
Semi major axis: 7831 km
RCS: 0.688 m2 (medium)
Launch date: August 6, 1981
Source: Commonwealth of Independent States (former USSR) (CIS)
Launch site: PLESETSK MISSILE AND SPACE COMPLEX (PKMTR)
aabbcc
Your satellite tracking list
Your tracking list is empty




NASA's NSSDC Master Catalog

Two Line Element Set (TLE):
1 12639U 81074D   17324.77583302 -.00000014 +00000-0 +15068-4 0  9993
2 12639 074.0342 081.2615 0015390 232.6678 238.2042 12.52785360659660
Source of the keplerian elements: AFSPC